{"data":{"norad_id":48316,"intl_designator":"2021-036AS","name":"STARLINK-2507","alt_names":[],"object_type":"PAYLOAD","status":"ACTIVE","operator":null,"country":"US","launch_date":"2021-04-29","launch_site_code":"AFETR","launch_vehicle":null,"mission":null,"orbit_class":"UNKNOWN","rcs_meters":null,"size_class":null,"mass_kg":null,"dimensions":null,"purposes":["comms"],"wikipedia_slug":null,"has_3d_model":false,"image_url":null,"decayed_at":null,"tle_current":{"epoch":"2026-05-25T02:54:36.044928Z","epoch_age_seconds":64894,"freshness":"FRESH","line1":"1 48316U 21036AS  26145.12125052  .00000346  00000+0  22921-4 0  9992","line2":"2 48316  53.1618 103.4354 0001257  95.7611 264.3533 15.31696669279761","mean_motion":15.31696669,"eccentricity":0.0001257,"inclination_deg":53.1618,"raan_deg":103.4354,"arg_perigee_deg":95.7611,"mean_anomaly_deg":264.3533,"bstar":2.2921e-5,"rev_number":27976,"period_min":94.013392412751,"perigee_km":469.88901969487,"apogee_km":471.61082986776,"semimajor_km":6848.8869247813,"source":"CELESTRAK","updated_at":"2026-05-25T13:38:16.680496Z"}}}